Amarillo, TX

4:26 PM CDT on June 15, 2019 (GMT -0500)
Amarillo International

Weather History for KAMA - May, 2019

Change the Weather History Date:

Saturday, May 25, 2019

  Actual Average Record
Temperature  
Mean Temperature 68 °F 68 °F  
Max Temperature 77 °F 82 °F 102 °F (1953)
Min Temperature 59 °F 55 °F 42 °F (1950)
Degree Days  
Heating Degree Days 0 1  
Month to date heating degree days 109 77  
Since 1 July heating degree days 4092 4165  
Cooling Degree Days 3 5  
Month to date cooling degree days 35 71  
Year to date cooling degree days 51 92  
Growing Degree Days 18 (Base 50)    
Moisture  
Dew Point 62 °F    
Average Humidity 81    
Maximum Humidity 93    
Minimum Humidity 69    
Precipitation  
Precipitation 0.10 in 0.09 in 2.08 in (1999)
Month to date precipitation 2.38 1.67  
Year to date precipitation 6.47 5.74  
Snow  
Snow 0.00 in 0.00 in T in (2000)
Month to date snowfall 0.0 0.2  
Since 1 July snowfall 8.1 17.8  
Snow Depth 0.00 in    
Sea Level Pressure  
Sea Level Pressure 29.89 in    
Wind  
Wind Speed 16 mph (SSE)    
Max Wind Speed 28 mph    
Max Gust Speed 33 mph    
Visibility 9 miles    
Events Rain , Thunderstorm    
T = Trace of Precipitation, MM = Missing Value Source: NWS Daily Summary

Daily Weather History Graph

Daily Weather History Graph

Search for Another Location

Airport or City:

Astronomy

May. 25, 2019 Rise Set
Actual Time 6:36 AM CDT 8:51 PM CDT
Civil Twilight 6:07 AM CDT 9:20 PM CDT
Nautical Twilight 5:32 AM CDT 9:55 PM CDT
Astronomical Twilight 4:53 AM CDT 10:34 PM CDT
Moon 1:55 AM CDT (5/25) 12:34 PM CDT (5/25)
Length of Visible Light 15h 12m
Length of Day
14h 14m
Waning Gibbous, 59% of the Moon is Illuminated
May 25
Waning Gibbous
May 26
Last Quarter
Jun 3
New
Jun 10
First Quarter
Jun 17
Full

Hourly Weather History & Observations

Time (CDT) Temp. Dew Point Humidity Pressure Visibility Wind Dir Wind Speed Gust Speed Precip Events Conditions
12:53 AM 60.1 °F 55.9 °F 86% 29.85 in 10.0 mi SSE 11.5 mph - N/A   Clear
1:45 AM 61.0 °F 55.9 °F 83% 29.96 in 10.0 mi SSE 12.7 mph - N/A   Mostly Cloudy
1:53 AM 62.1 °F 55.9 °F 80% 29.84 in 10.0 mi SSE 11.5 mph - N/A   Mostly Cloudy
2:53 AM 64.9 °F 60.1 °F 84% 29.82 in 10.0 mi SSE 20.7 mph 29.9 mph N/A   Overcast
3:24 AM 64.9 °F 60.1 °F 84% 29.95 in 10.0 mi SSE 18.4 mph - N/A   Overcast
3:53 AM 64.9 °F 61.0 °F 87% 29.81 in 10.0 mi SSE 17.3 mph - N/A   Mostly Cloudy
4:22 AM 64.0 °F 61.0 °F 90% 29.95 in 10.0 mi SSE 16.1 mph - N/A   Overcast
4:53 AM 64.0 °F 61.0 °F 90% 29.82 in 10.0 mi SSE 13.8 mph - N/A   Overcast
5:53 AM 64.0 °F 62.1 °F 93% 29.84 in 9.0 mi SSE 15.0 mph - N/A   Overcast
6:28 AM 64.9 °F 62.1 °F 90% 29.97 in 8.0 mi South 16.1 mph - N/A   Overcast
6:53 AM 64.9 °F 62.1 °F 90% 29.85 in 7.0 mi South 16.1 mph - N/A   Overcast
7:22 AM 64.9 °F 63.0 °F 93% 29.98 in 5.0 mi South 18.4 mph - N/A   Overcast
7:53 AM 66.0 °F 63.0 °F 90% 29.85 in 5.0 mi South 17.3 mph - N/A   Overcast
8:13 AM 66.0 °F 63.0 °F 90% 29.99 in 5.0 mi South 18.4 mph - N/A   Overcast
8:48 AM 66.2 °F 64.4 °F 94% 30.00 in 7.0 mi South 20.7 mph - N/A   Overcast
8:53 AM 66.9 °F 64.0 °F 90% 29.87 in 7.0 mi South 19.6 mph - N/A   Overcast
9:32 AM 69.1 °F 64.0 °F 84% 30.00 in 8.0 mi South 24.2 mph 29.9 mph N/A   Overcast
9:53 AM 69.1 °F 64.0 °F 84% 29.89 in 8.0 mi South 23.0 mph 31.1 mph N/A   Overcast
10:10 AM 70.0 °F 64.0 °F 81% 30.01 in 8.0 mi South 24.2 mph 29.9 mph N/A   Overcast
10:53 AM 72.0 °F 64.9 °F 78% 29.88 in 8.0 mi South 19.6 mph - N/A   Overcast
11:02 AM 72.0 °F 64.0 °F 76% 30.01 in 8.0 mi South 20.7 mph - N/A   Overcast
11:53 AM 73.9 °F 64.9 °F 73% 29.89 in 10.0 mi South 15.0 mph - N/A   Mostly Cloudy
12:27 PM 75.0 °F 64.9 °F 71% 30.02 in 10.0 mi South 16.1 mph - N/A   Mostly Cloudy
12:53 PM 75.0 °F 64.9 °F 71% 29.88 in 10.0 mi South 13.8 mph - N/A   Mostly Cloudy
1:53 PM 72.0 °F 64.9 °F 78% 29.84 in 9.0 mi SSE 15.0 mph - 0.00 in Rain Light Rain
2:25 PM 72.0 °F 64.9 °F 78% 29.94 in 10.0 mi SE 19.6 mph 31.1 mph 0.00 in Thunderstorm Mostly Cloudy
2:39 PM 72.0 °F 64.9 °F 78% 29.96 in 10.0 mi South 21.9 mph 31.1 mph 0.00 in   Overcast
2:51 PM 69.8 °F 64.4 °F 83% 29.96 in 10.0 mi South 16.1 mph - 0.00 in Rain , Thunderstorm Light Thunderstorms and Rain
2:53 PM 70.0 °F 64.9 °F 84% 29.83 in 10.0 mi South 12.7 mph - 0.00 in Rain , Thunderstorm Light Thunderstorms and Rain
3:06 PM 70.0 °F 64.9 °F 84% 29.95 in 10.0 mi SSE 17.3 mph 24.2 mph 0.00 in Thunderstorm Thunderstorm
3:21 PM 70.0 °F 64.9 °F 84% 29.94 in 10.0 mi SSE 16.1 mph - 0.00 in   Scattered Clouds
3:38 PM 70.0 °F 66.0 °F 87% 30.00 in 10.0 mi South 16.1 mph 26.5 mph 0.00 in   Mostly Cloudy
3:53 PM 70.0 °F 64.9 °F 84% 29.85 in 10.0 mi South 13.8 mph 20.7 mph 0.00 in   Overcast
4:09 PM 68.0 °F 60.1 °F 76% 29.99 in 10.0 mi SSW 6.9 mph - N/A   Mostly Cloudy
4:27 PM 63.0 °F 55.0 °F 75% 29.99 in 10.0 mi North 15.0 mph 20.7 mph N/A Thunderstorm Mostly Cloudy
4:49 PM 60.8 °F 57.2 °F 88% 29.96 in 10.0 mi North 5.8 mph - 0.00 in Thunderstorm Overcast
4:53 PM 61.0 °F 57.0 °F 87% 29.86 in 10.0 mi ESE 8.1 mph - 0.00 in Thunderstorm Overcast
5:11 PM 62.1 °F 57.0 °F 84% 29.95 in 10.0 mi ESE 10.4 mph - 0.00 in Rain , Thunderstorm Light Rain
5:25 PM 61.0 °F 57.9 °F 90% 29.95 in 6.0 mi SSE 11.5 mph - 0.02 in Rain , Thunderstorm Light Thunderstorms and Rain
5:53 PM 62.1 °F 57.9 °F 86% 29.82 in 7.0 mi ESE 11.5 mph - 0.07 in Rain , Thunderstorm Light Thunderstorms and Rain
6:04 PM 63.0 °F 60.1 °F 90% 29.93 in 6.0 mi SE 20.7 mph - 0.03 in Rain , Thunderstorm Light Rain
6:19 PM 66.0 °F 61.0 °F 84% 29.92 in 10.0 mi SE 19.6 mph - 0.03 in   Mostly Cloudy
6:53 PM 69.1 °F 60.1 °F 73% 29.80 in 10.0 mi SSE 18.4 mph - 0.03 in   Clear
7:53 PM 69.1 °F 59.0 °F 70% 29.79 in 10.0 mi SSE 20.7 mph 26.5 mph N/A   Clear
8:53 PM 64.9 °F 60.1 °F 84% 29.79 in 10.0 mi SSE 19.6 mph 24.2 mph N/A   Clear
9:53 PM 64.9 °F 59.0 °F 81% 29.78 in 10.0 mi South 15.0 mph - N/A   Clear
10:53 PM 64.9 °F 60.1 °F 84% 29.81 in 10.0 mi South 13.8 mph - N/A   Clear
11:53 PM 68.0 °F 63.0 °F 84% 29.82 in 10.0 mi South 13.8 mph - N/A   Clear